Radiation Dose at Monitoring Post of Fukushima Daini Nuclear Power Station
Date,Time,MP-1(microSv/h),MP-2(microSv/h),MP-3(microSv/h),MP-4(microSv/h),MP-5(microSv/h),MP-6(microSv/h),MP-7(microSv/h),Wind Direction,Wind Velocity(m/s),Rain
2014/11/23,00:00,0.627,0.398,0.662,0.597,0.590,0.276,0.246,southwest,2.9,No
2014/11/23,00:10,0.629,0.398,0.662,0.598,0.588,0.276,0.245,south-southwest,2.2,No
2014/11/23,00:20,0.628,0.398,0.663,0.599,0.588,0.277,0.245,south-southwest,2.0,No
2014/11/23,00:30,0.629,0.399,0.662,0.598,0.591,0.275,0.244,south-southwest,3.6,No
2014/11/23,00:40,0.628,0.398,0.664,0.597,0.589,0.276,0.245,southwest,2.3,No
2014/11/23,00:50,0.626,0.397,0.663,0.598,0.589,0.276,0.246,southwest,1.9,No
2014/11/23,01:00,0.628,0.399,0.663,0.598,0.589,0.276,0.245,southwest,1.8,No
2014/11/23,01:10,0.626,0.397,0.663,0.598,0.588,0.276,0.246,west-southwest,1.9,No
2014/11/23,01:20,0.630,0.397,0.662,0.597,0.591,0.276,0.245,west,1.9,No
2014/11/23,01:30,0.627,0.398,0.664,0.597,0.588,0.275,0.245,west-northwest,2.2,No
2014/11/23,01:40,0.626,0.396,0.663,0.598,0.589,0.276,0.246,west,1.4,No
2014/11/23,01:50,0.627,0.398,0.664,0.598,0.587,0.277,0.244,west-southwest,1.8,No
2014/11/23,02:00,0.626,0.398,0.663,0.598,0.589,0.276,0.245,west-southwest,3.0,No
2014/11/23,02:10,0.627,0.397,0.663,0.598,0.589,0.277,0.245,west-southwest,3.9,No
2014/11/23,02:20,0.625,0.398,0.663,0.599,0.589,0.274,0.245,southwest,2.5,No
2014/11/23,02:30,0.627,0.398,0.663,0.599,0.591,0.277,0.245,south-southwest,1.7,No
2014/11/23,02:40,0.628,0.397,0.662,0.598,0.588,0.277,0.244,southwest,3.3,No
2014/11/23,02:50,0.628,0.396,0.665,0.598,0.590,0.276,0.246,west,1.6,No
2014/11/23,03:00,0.628,0.398,0.663,0.599,0.588,0.276,0.245,west-northwest,0.8,No
2014/11/23,03:10,0.629,0.398,0.661,0.598,0.589,0.276,0.245,west,2.9,No
2014/11/23,03:20,0.628,0.396,0.664,0.597,0.590,0.276,0.246,west,3.1,No
2014/11/23,03:30,0.628,0.398,0.663,0.598,0.589,0.275,0.244,west,4.8,No
2014/11/23,03:40,0.628,0.398,0.662,0.599,0.588,0.276,0.245,west,4.3,No
2014/11/23,03:50,0.626,0.397,0.662,0.598,0.587,0.277,0.246,west,5.0,No
2014/11/23,04:00,0.626,0.397,0.664,0.598,0.588,0.276,0.244,west,4.2,No
2014/11/23,04:10,0.627,0.397,0.663,0.598,0.587,0.277,0.245,west-northwest,3.6,No
2014/11/23,04:20,0.626,0.399,0.663,0.600,0.589,0.276,0.245,west-northwest,4.6,No
2014/11/23,04:30,0.627,0.397,0.664,0.600,0.589,0.277,0.246,west-northwest,2.3,No
2014/11/23,04:40,0.626,0.398,0.664,0.597,0.590,0.277,0.244,north,1.1,No
2014/11/23,04:50,0.628,0.397,0.663,0.598,0.589,0.276,0.244,west-northwest,1.1,No
2014/11/23,05:00,0.627,0.398,0.664,0.599,0.587,0.276,0.245,west,2.1,No
2014/11/23,05:10,0.628,0.398,0.664,0.598,0.589,0.276,0.244,west,2.5,No
2014/11/23,05:20,0.627,0.398,0.664,0.600,0.588,0.274,0.244,northwest,2.1,No
2014/11/23,05:30,0.628,0.398,0.663,0.597,0.589,0.274,0.244,northwest,1.7,No
2014/11/23,05:40,0.629,0.398,0.664,0.601,0.589,0.276,0.245,west-northwest,4.0,No
2014/11/23,05:50,0.627,0.398,0.662,0.600,0.587,0.275,0.246,west-northwest,6.4,No
2014/11/23,06:00,0.626,0.397,0.663,0.599,0.589,0.275,0.245,west-northwest,7.7,No
2014/11/23,06:10,0.627,0.399,0.666,0.599,0.587,0.276,0.244,west,6.8,No
2014/11/23,06:20,0.627,0.399,0.662,0.598,0.589,0.275,0.244,north,2.8,No
2014/11/23,06:30,0.629,0.399,0.664,0.597,0.588,0.276,0.245,north-northwest,3.3,No
2014/11/23,06:40,0.629,0.399,0.663,0.600,0.588,0.276,0.244,north,3.2,No
2014/11/23,06:50,0.628,0.398,0.665,0.600,0.589,0.276,0.244,north,7.3,No
2014/11/23,07:00,0.629,0.399,0.665,0.601,0.588,0.274,0.244,north,10.3,No
2014/11/23,07:10,0.628,0.400,0.665,0.599,0.588,0.276,0.244,north,11.5,No
2014/11/23,07:20,0.629,0.400,0.664,0.600,0.589,0.276,0.243,north,9.2,No
2014/11/23,07:30,0.628,0.400,0.666,0.600,0.589,0.276,0.244,north,8.6,No
2014/11/23,07:40,0.628,0.400,0.665,0.600,0.589,0.276,0.244,north,6.5,No
2014/11/23,07:50,0.629,0.399,0.665,0.600,0.589,0.276,0.244,north,5.2,No
2014/11/23,08:00,0.629,0.401,0.664,0.600,0.590,0.276,0.244,north,5.4,No
2014/11/23,08:10,0.628,0.399,0.665,0.599,0.589,0.276,0.245,north,6.0,No
2014/11/23,08:20,0.628,0.399,0.665,0.601,0.591,0.278,0.243,north-northeast,7.2,No
2014/11/23,08:30,0.628,0.400,0.663,0.601,0.591,0.275,0.244,north,7.0,No
2014/11/23,08:40,0.629,0.399,0.664,0.601,0.589,0.277,0.244,north,8.0,No
2014/11/23,08:50,0.629,0.400,0.667,0.601,0.590,0.275,0.245,north,7.9,No
2014/11/23,09:00,0.630,0.399,0.666,0.600,0.588,0.277,0.245,north,9.2,No
2014/11/23,09:10,0.630,0.400,0.667,0.602,0.590,0.276,0.245,north,7.3,No
2014/11/23,09:20,0.630,0.400,0.667,0.601,0.589,0.278,0.244,north,8.2,No
2014/11/23,09:30,0.629,0.401,0.666,0.604,0.591,0.277,0.245,north,7.2,No
2014/11/23,09:40,0.630,0.399,0.664,0.601,0.591,0.276,0.245,north,7.5,No
2014/11/23,09:50,0.629,0.399,0.666,0.603,0.591,0.276,0.245,north,7.8,No
2014/11/23,10:00,0.628,0.400,0.666,0.603,0.590,0.277,0.245,north,6.5,No
2014/11/23,10:10,0.629,0.401,0.665,0.601,0.590,0.277,0.244,north,6.9,No
2014/11/23,10:20,0.629,0.400,0.666,0.601,0.590,0.277,0.244,north,8.1,No
2014/11/23,10:30,0.629,0.400,0.665,0.602,0.588,0.276,0.245,north,5.5,No
2014/11/23,10:40,0.629,0.399,0.668,0.604,0.587,0.276,0.244,north,5.0,No
2014/11/23,10:50,0.628,0.399,0.666,0.601,0.589,0.276,0.247,north,3.7,No
2014/11/23,11:00,0.629,0.400,0.665,0.601,0.590,0.276,0.245,north,5.7,No
2014/11/23,11:10,0.630,0.399,0.666,0.602,0.591,0.277,0.246,north,4.9,No
2014/11/23,11:20,0.628,0.400,0.664,0.601,0.590,0.276,0.244,north,4.5,No
2014/11/23,11:30,0.630,0.399,0.664,0.602,0.589,0.277,0.246,north,5.5,No
2014/11/23,11:40,0.630,0.401,0.665,0.602,0.589,0.275,0.244,north,5.3,No
2014/11/23,11:50,0.628,0.400,0.666,0.601,0.590,0.274,0.245,north,4.9,No
2014/11/23,12:00,0.628,0.399,0.667,0.603,0.590,0.275,0.244,north,2.9,No
2014/11/23,12:10,0.629,0.400,0.667,0.601,0.589,0.277,0.245,north-northwest,3.1,No
2014/11/23,12:20,0.628,0.401,0.664,0.601,0.589,0.276,0.245,north,3.5,No
2014/11/23,12:30,0.629,0.400,0.667,0.604,0.591,0.278,0.245,north,2.6,No
2014/11/23,12:40,0.628,0.401,0.664,0.604,0.589,0.276,0.245,north,1.5,No
2014/11/23,12:50,0.628,0.397,0.664,0.602,0.589,0.277,0.244,north-northeast,3.3,No
2014/11/23,13:00,0.629,0.400,0.666,0.604,0.587,0.275,0.246,north-northeast,4.5,No
2014/11/23,13:10,0.629,0.399,0.664,0.605,0.590,0.277,0.245,north-northeast,4.1,No
2014/11/23,13:20,0.631,0.401,0.665,0.602,0.589,0.275,0.245,north-northeast,4.4,No
2014/11/23,13:30,0.630,0.397,0.667,0.603,0.590,0.277,0.244,north-northeast,4.7,No
2014/11/23,13:40,0.629,0.400,0.665,0.603,0.588,0.276,0.245,north-northeast,4.9,No
2014/11/23,13:50,0.630,0.401,0.665,0.601,0.591,0.277,0.245,north-northeast,4.9,No
2014/11/23,14:00,0.630,0.398,0.663,0.601,0.591,0.275,0.245,north-northeast,6.3,No
2014/11/23,14:10,0.630,0.400,0.665,0.602,0.588,0.275,0.246,north-northeast,5.8,No
2014/11/23,14:20,0.629,0.399,0.664,0.605,0.588,0.274,0.246,north-northeast,6.2,No
2014/11/23,14:30,0.630,0.400,0.664,0.607,0.589,0.275,0.245,north-northeast,6.6,No
2014/11/23,14:40,0.628,0.399,0.666,0.605,0.589,0.278,0.246,north-northeast,4.4,No
2014/11/23,14:50,0.630,0.400,0.666,0.605,0.589,0.276,0.245,north,4.3,No
2014/11/23,15:00,0.629,0.399,0.666,0.602,0.589,0.278,0.245,north,3.1,No
2014/11/23,15:10,0.628,0.399,0.665,0.600,0.589,0.277,0.244,north,3.9,No
2014/11/23,15:20,0.629,0.401,0.664,0.600,0.589,0.277,0.245,north,2.6,No
2014/11/23,15:30,0.627,0.399,0.665,0.600,0.591,0.276,0.245,north,2.6,No
2014/11/23,15:40,0.628,0.399,0.664,0.600,0.589,0.277,0.245,north,2.8,No
2014/11/23,15:50,0.629,0.399,0.665,0.601,0.592,0.276,0.246,north,2.3,No
2014/11/23,16:00,0.630,0.400,0.664,0.602,0.589,0.277,0.245,north,2.2,No
2014/11/23,16:10,0.630,0.400,0.664,0.600,0.589,0.278,0.245,north,2.5,No
2014/11/23,16:20,0.630,0.399,0.664,0.598,0.589,0.275,0.246,north,2.8,No
2014/11/23,16:30,0.628,0.400,0.666,0.598,0.590,0.276,0.245,north-northwest,1.7,No
2014/11/23,16:40,0.631,0.399,0.665,0.598,0.589,0.276,0.245,north,1.7,No
2014/11/23,16:50,0.628,0.398,0.663,0.600,0.589,0.276,0.245,north-northwest,1.4,No
2014/11/23,17:00,0.628,0.399,0.664,0.599,0.588,0.277,0.245,northwest,0.8,No
2014/11/23,17:10,0.628,0.399,0.665,0.600,0.590,0.275,0.244,-,CALM,No
2014/11/23,17:20,0.631,0.398,0.664,0.599,0.590,0.277,0.244,north-northwest,0.5,No
2014/11/23,17:30,0.627,0.399,0.665,0.600,0.589,0.276,0.247,west-northwest,1.6,No
2014/11/23,17:40,0.628,0.399,0.663,0.601,0.588,0.276,0.245,north-northwest,1.5,No
2014/11/23,17:50,0.627,0.398,0.665,0.600,0.589,0.276,0.245,west-northwest,2.5,No
2014/11/23,18:00,0.628,0.399,0.664,0.598,0.589,0.277,0.247,northwest,3.3,No
2014/11/23,18:10,0.630,0.398,0.664,0.598,0.588,0.277,0.247,northwest,3.8,No
2014/11/23,18:20,0.628,0.399,0.665,0.600,0.589,0.277,0.248,north-northwest,3.1,No
2014/11/23,18:30,0.628,0.398,0.663,0.601,0.587,0.278,0.247,northwest,3.8,No
2014/11/23,18:40,0.628,0.399,0.664,0.600,0.588,0.276,0.246,northwest,3.5,No
2014/11/23,18:50,0.626,0.398,0.664,0.599,0.587,0.276,0.245,northwest,3.3,No
2014/11/23,19:00,0.628,0.397,0.663,0.600,0.589,0.278,0.246,north-northwest,2.8,No
2014/11/23,19:10,0.628,0.399,0.665,0.598,0.589,0.277,0.244,north-northwest,2.6,No
2014/11/23,19:20,0.628,0.398,0.663,0.598,0.591,0.277,0.245,north,3.9,No
2014/11/23,19:30,0.628,0.399,0.663,0.598,0.588,0.276,0.246,north,4.3,No
2014/11/23,19:40,0.629,0.399,0.665,0.600,0.587,0.275,0.245,north-northwest,3.4,No
2014/11/23,19:50,0.628,0.397,0.664,0.601,0.590,0.277,0.247,north-northwest,3.6,No
2014/11/23,20:00,0.627,0.397,0.664,0.599,0.589,0.276,0.246,north-northwest,4.2,No
2014/11/23,20:10,0.629,0.398,0.665,0.599,0.590,0.276,0.246,north-northwest,3.8,No
2014/11/23,20:20,0.628,0.398,0.664,0.600,0.590,0.276,0.247,north,4.0,No
2014/11/23,20:30,0.628,0.398,0.664,0.600,0.589,0.277,0.246,north-northwest,3.8,No
2014/11/23,20:40,0.628,0.397,0.663,0.599,0.589,0.276,0.246,north-northwest,4.2,No
2014/11/23,20:50,0.628,0.397,0.665,0.599,0.588,0.276,0.245,north-northwest,4.2,No
2014/11/23,21:00,0.627,0.399,0.662,0.600,0.588,0.277,0.246,north-northwest,2.2,No
2014/11/23,21:10,0.627,0.399,0.662,0.599,0.589,0.276,0.247,north-northwest,3.1,No
2014/11/23,21:20,0.628,0.399,0.664,0.598,0.588,0.276,0.246,north-northwest,4.7,No
2014/11/23,21:30,0.627,0.398,0.663,0.598,0.588,0.276,0.247,north-northwest,5.1,No
2014/11/23,21:40,0.627,0.397,0.663,0.601,0.589,0.277,0.246,north-northwest,5.6,No
2014/11/23,21:50,0.628,0.398,0.664,0.601,0.589,0.277,0.246,north-northwest,4.6,No
2014/11/23,22:00,0.627,0.398,0.665,0.598,0.590,0.278,0.246,north-northwest,3.2,No
2014/11/23,22:10,0.627,0.398,0.663,0.598,0.589,0.276,0.245,north,4.6,No
2014/11/23,22:20,0.628,0.398,0.663,0.599,0.588,0.277,0.246,north,4.7,No
2014/11/23,22:30,0.628,0.399,0.664,0.598,0.589,0.276,0.245,north,6.1,No
2014/11/23,22:40,0.628,0.397,0.664,0.599,0.588,0.276,0.247,north,4.8,No
2014/11/23,22:50,0.630,0.398,0.665,0.600,0.591,0.276,0.246,north,5.1,No
2014/11/23,23:00,0.627,0.398,0.664,0.600,0.590,0.276,0.246,north,5.5,No
2014/11/23,23:10,0.627,0.398,0.664,0.601,0.590,0.276,0.246,north,5.6,No
2014/11/23,23:20,0.628,0.398,0.664,0.600,0.588,0.277,0.246,north-northwest,5.6,No
2014/11/23,23:30,0.627,0.400,0.663,0.599,0.590,0.276,0.245,north-northwest,5.3,No
2014/11/23,23:40,0.629,0.399,0.664,0.599,0.589,0.277,0.245,north,5.5,No
2014/11/23,23:50,0.627,0.398,0.661,0.601,0.589,0.277,0.246,north,6.1,No
